Regional Weather Roundup
Issued by NWS

Home | Current Version | Previous Version | Text Only | Print | Product List | Glossary On
Versions: 1 2 3 4 5 6 7 8 9 10 11 12 13 14 15 16 17 18 19 20 21 22 23 24 25 26 27 28 29 30 31 32 33 34 35 36 37 38 39 40 41 42 43 44 45 46 47 48 49 50
000
ASUS43 KLSX 280559
RWRMO

WEATHER SUMMARY FOR MISSOURI
NATIONAL WEATHER SERVICE SPRINGFIELD MO
100 AM CDT SAT MAR 28 2015

NOTE: "FAIR" INDICATES FEW OR NO CLOUDS BELOW 12,000 FEET WITH NO
       SIGNIFICANT WEATHER AND/OR OBSTRUCTIONS TO VISIBILITY.
       CURRENT SKY AND/OR WEATHER CONDITIONS ARE NOT AVAILABLE FOR
       CHILLICOTHE AND FARMINGTON.

MOZ001>031-035>038-043-044-053-054-280700-
...NORTHERN AND WESTERN MISSOURI...

CITY           SKY/WX    TMP DP  RH WIND       PRES   REMARKS
KANSAS CTY INT CLOUDY    39  21  48 E10       30.10F
6HR MIN TEMP:  38; 6HR MAX TEMP:  41;

KANSAS C DTWN  CLOUDY    41  19  41 E9        30.11F
6HR MIN TEMP:  41; 6HR MAX TEMP:  44;

LEE`S SUMMIT   CLOUDY    39  21  48 E9        30.12F
6HR MIN TEMP:  39; 6HR MAX TEMP:  42;

ST JOSEPH      CLOUDY    38  24  57 SE10      30.12F
6HR MIN TEMP:  38; 6HR MAX TEMP:  41;

CHILLICOTHE      N/A     39  22  50 CALM      30.16F
6HR MIN TEMP:  39; 6HR MAX TEMP:  42;


$$
MOZ066>068-077>081-088>096-101>105-280700-
...SOUTHWEST MISSOURI...

CITY           SKY/WX    TMP DP  RH WIND       PRES   REMARKS
SPRINGFIELD    CLOUDY    41  22  46 E6        30.12F
6HR MIN TEMP:  41; 6HR MAX TEMP:  43;

JOPLIN         MOCLDY    42  25  50 SE7       30.13F
6HR MIN TEMP:  41; 6HR MAX TEMP:  46;


$$
MOZ032>034-039>042-045>050-055>058-069>072-280700-
...CENTRAL MISSOURI...

CITY           SKY/WX    TMP DP  RH WIND       PRES   REMARKS
COLUMBIA       CLOUDY    35  26  69 E3        30.16F
6HR MIN TEMP:  35; 6HR MAX TEMP:  41;

JEFFERSON CITY CLOUDY    37  27  67 CALM      30.17F
6HR MIN TEMP:  36; 6HR MAX TEMP:  42;

ROLLA          CLOUDY    33  24  69 SE6       30.14F WCI  28
6HR MIN TEMP:  33; 6HR MAX TEMP:  38;

SEDALIA        CLOUDY    39  25  57 NE3       30.16F
6HR MIN TEMP:  39; 6HR MAX TEMP:  42;

OSAGE BEACH    CLOUDY    36  25  64 CALM      30.16F

$$
MOZ051-052-059>065-280700-
...EAST CENTRAL MISSOURI...

CITY           SKY/WX    TMP DP  RH WIND       PRES   REMARKS
ST LOUIS INTL  NOT AVBL
SPIRIT OF STL  CLEAR     30  18  60 CALM      30.20S
6HR MIN TEMP:  28; 6HR MAX TEMP:  39;

ST CHARLES     CLEAR     30  22  72 CALM      30.21S
6HR MIN TEMP:  29; 6HR MAX TEMP:  39;


$$
MOZ072>076-082>087-097>100-106>115-280700-
...SOUTH CENTRAL AND SOUTHEAST MISSOURI...

CITY           SKY/WX    TMP DP  RH WIND       PRES   REMARKS
CAPE GIRARDEAU PTCLDY    30  28  92 SW3       30.19F
6HR MIN TEMP:  29; 6HR MAX TEMP:  39;

FARMINGTON     PTCLDY    28  23  80 CALM      30.19F
6HR MIN TEMP:  28; 6HR MAX TEMP:  37;

POPLAR BLUFF   CLOUDY    36  28  73 CALM      30.19F
6HR MIN TEMP:  36; 6HR MAX TEMP:  43;

WEST PLAINS    CLOUDY    37  22  54 NE3       30.16F
6HR MIN TEMP:  36; 6HR MAX TEMP:  42;


$$


USA.gov is the U.S. government's official web portal to all federal, state and local government web resources and services.